Flag for Denmark Weather past 2 weeks in Aalborg, Denmark

Now
55 °F

Scattered clouds.


Feels Like: 53 °F
Forecast: 50 / 63 °F
Wind: 8 mph from Southeast

Location: Aalborg Airport

Current Time: Sep 3, 2015 at 9:27:00 PM

Latest Report: Sep 3, 2015 at 8:50 PM


Visibility: N/A

Pressure: 29.86 "Hg

Humidity: 82%

Dew point: 50 °F

Location of AalborgLocation

Historic Weather in Aalborg — Graph

°F

Aalborg temperature yesterday

Maximum temperature yesterday: 64 °F (at 10:50 AM)
Minimum temperature yesterday: 55 °F (at 11:20 PM)
Average temperature yesterday: 60 °F

Past Weeks' High & Low Weather Summary

 TemperatureHumidityPressure
High75 °F (Aug 22, 11:50 AM)100% (Aug 22, 4:50 AM)30.33 "Hg (Aug 22, 4:50 AM)
Low52 °F (Sep 3, 6:20 AM)36% (Aug 22, 1:20 PM)29.56 "Hg (Sep 1, 8:20 PM)
Average63 °F80%29.93 "Hg
* Reported Aug 19 8:20 PM — Sep 3 8:20 PM, Aalborg, Weather by CustomWeather, © 2015

Note: Actual official high and low records may vary slightly from our data, if they occured in-between our weather recording intervals... More about our weather records

Advertising

Aalborg weather history for previous 24 hours

 ConditionsComfort  
Time TempWeatherWind HumidityBarometerVisibility
8:20 PM
Thu, Sep 3
55 °FScattered clouds.8 mph88%29.83 "HgN/A
7:50 PM57 °FScattered clouds.12 mph82%29.83 "HgN/A
7:20 PM59 °FPartly sunny.10 mph82%29.83 "HgN/A
6:50 PM59 °FBroken clouds.10 mph82%29.83 "HgN/A
6:20 PM61 °FScattered clouds.8 mph72%29.83 "HgN/A
5:50 PM59 °FPartly sunny.13 mph77%29.83 "HgN/A
5:20 PM57 °FPartly sunny.8 mph88%29.83 "HgN/A
4:50 PM55 °FSprinkles. Partly sunny.12 mph88%29.83 "HgN/A
4:20 PM59 °FBroken clouds.13 mph77%29.83 "Hg5 mi
3:54 PM63 °FThunderstorms. Partly sunny.10 mph64%29.80 "HgN/A
3:20 PM64 °FScattered clouds.13 mph60%29.80 "HgN/A
2:50 PM64 °FScattered clouds.14 mph56%29.80 "HgN/A
2:20 PM64 °FScattered clouds.10 mph60%29.80 "HgN/A
1:50 PM64 °FScattered clouds.15 mph60%29.80 "HgN/A
1:20 PM64 °FScattered clouds.15 mph56%29.80 "HgN/A
12:50 PM64 °FScattered clouds.15 mph60%29.80 "HgN/A
12:20 PM64 °FScattered clouds.18 mph60%29.80 "HgN/A
11:50 AM64 °FPartly sunny.16 mph64%29.80 "HgN/A
11:20 AM63 °FScattered clouds.16 mph64%29.80 "HgN/A
10:50 AM61 °FPartly sunny.16 mph72%29.80 "HgN/A
10:20 AM61 °FPassing clouds.15 mph72%29.80 "HgN/A
9:50 AM59 °FPassing clouds.14 mph82%29.80 "HgN/A
9:20 AM59 °FPassing clouds.12 mph82%29.80 "HgN/A
8:50 AM57 °FSunny.12 mph82%29.80 "Hg10 mi
8:20 AM55 °FPassing clouds.13 mph88%29.80 "HgN/A
7:50 AM54 °FSunny.12 mph94%29.77 "Hg10 mi
7:20 AM54 °FPassing clouds.10 mph94%29.77 "HgN/A
6:50 AM54 °FClear.9 mph88%29.77 "Hg10 mi
6:20 AM52 °FClear.9 mph94%29.77 "Hg10 mi
5:20 AM54 °FClear.10 mph94%29.77 "Hg10 mi
4:50 AM54 °FClear.10 mph94%29.77 "Hg10 mi
4:20 AM54 °FClear.10 mph94%29.77 "Hg10 mi
3:50 AM54 °FClear.10 mph94%29.77 "Hg10 mi
3:20 AM54 °FClear.12 mph94%29.77 "Hg10 mi
2:50 AM54 °FClear.12 mph94%29.77 "Hg10 mi
2:20 AM55 °FClear.12 mph88%29.77 "Hg10 mi
1:50 AM55 °FClear.13 mph88%29.77 "Hg10 mi
1:20 AM55 °FClear.13 mph88%29.74 "Hg10 mi
12:50 AM55 °FClear.13 mph88%29.74 "Hg10 mi
12:20 AM55 °FClear.14 mph94%29.74 "Hg10 mi
11:20 PM
Wed, Sep 2
55 °FPartly cloudy.14 mph94%29.74 "HgN/A
10:50 PM57 °FPartly cloudy.14 mph88%29.74 "HgN/A
10:20 PM57 °FPassing clouds.14 mph88%29.74 "HgN/A
9:50 PM57 °FPassing clouds.14 mph88%29.74 "HgN/A
9:20 PM57 °FPassing clouds.12 mph88%29.74 "HgN/A
Weather by CustomWeather, © 2015

See weather overviewHow to use our weather pages